ENT4NP EPWA-LICA

Flight info

Callsign ENT4NP
Flight time 2h 17m
Altitude 38000
Route EVINA DCT LIGDI DCT SKARY DCT XOMBA DCT NIKAB DCT VEBAL DCT NOVLO DCT UNIPA DCT SPL DCT KATTI/N0450F370 DCT POLIT M620 ARBUM
Aircraft B38M/M-SDFGHIJ4J7RWXY/EB1

Departure

Time 2026-05-08 08:30
Airport Warsaw Chopin Airport (EPWA)

Arrival

Time 2026-05-08 10:48
Airport Lamezia Terme Sant'Eufemia International Airport (LICA)
Time Latitude Longitude Altitude Speed Heading
2026-05-08 08:06 52.17680 20.96631 366 ft 0 kts 237°
2026-05-08 08:20 52.17686 20.96647 365 ft 0 kts 236°
2026-05-08 08:20 52.17694 20.96663 365 ft 2 kts 211°
2026-05-08 08:21 52.17708 20.96671 365 ft 2 kts 181°
2026-05-08 08:21 52.17722 20.96667 365 ft 1 kts 152°
2026-05-08 08:21 52.17727 20.96661 365 ft 1 kts 144°
2026-05-08 08:21 52.17730 20.96659 365 ft 0 kts 146°
2026-05-08 08:23 52.17728 20.96660 365 ft 1 kts 146°
2026-05-08 08:23 52.17710 20.96680 365 ft 5 kts 146°
2026-05-08 08:24 52.17664 20.96728 365 ft 10 kts 147°
2026-05-08 08:24 52.17591 20.96781 365 ft 12 kts 197°
2026-05-08 08:24 52.17535 20.96651 365 ft 16 kts 239°
2026-05-08 08:24 52.17464 20.96495 365 ft 17 kts 239°
2026-05-08 08:25 52.17387 20.96404 365 ft 14 kts 162°
2026-05-08 08:25 52.17289 20.96489 365 ft 17 kts 152°
2026-05-08 08:25 52.17171 20.96591 365 ft 20 kts 152°
2026-05-08 08:25 52.17038 20.96707 365 ft 22 kts 152°
2026-05-08 08:26 52.16895 20.96831 365 ft 24 kts 152°
2026-05-08 08:26 52.16748 20.96959 365 ft 22 kts 152°
2026-05-08 08:26 52.16619 20.97072 365 ft 20 kts 152°
2026-05-08 08:26 52.16502 20.97175 365 ft 18 kts 151°
2026-05-08 08:27 52.16392 20.97271 365 ft 18 kts 152°
2026-05-08 08:27 52.16271 20.97376 365 ft 21 kts 152°
2026-05-08 08:27 52.16122 20.97504 365 ft 27 kts 151°
2026-05-08 08:27 52.15957 20.97650 365 ft 25 kts 151°
2026-05-08 08:28 52.15808 20.97779 365 ft 22 kts 152°
2026-05-08 08:28 52.15675 20.97897 365 ft 20 kts 152°
2026-05-08 08:28 52.15649 20.98035 365 ft 13 kts 41°
2026-05-08 08:28 52.15749 20.98109 365 ft 18 kts 23°
2026-05-08 08:29 52.15884 20.98208 365 ft 23 kts 25°
2026-05-08 08:29 52.16025 20.98313 365 ft 20 kts 24°
2026-05-08 08:29 52.16114 20.98335 365 ft 11 kts 319°
2026-05-08 08:29 52.16177 20.98127 365 ft 41 kts 296°
2026-05-08 08:30 52.16395 20.97353 365 ft 107 kts 294°
2026-05-08 08:30 52.16789 20.95949 372 ft 159 kts 296°
2026-05-08 08:30 52.17722 20.92645 1638 ft 167 kts 296°
2026-05-08 08:31 52.18224 20.90860 2100 ft 182 kts 294°
2026-05-08 08:31 52.18385 20.88730 2351 ft 204 kts 262°
2026-05-08 08:31 52.17934 20.86379 2579 ft 228 kts 251°
2026-05-08 08:31 52.17427 20.83860 3016 ft 241 kts 256°
2026-05-08 08:32 52.16808 20.81218 3375 ft 261 kts 237°
2026-05-08 08:32 52.15419 20.79293 3994 ft 271 kts 204°
2026-05-08 08:32 52.13609 20.78443 4823 ft 270 kts 193°
2026-05-08 08:32 52.11790 20.77802 5514 ft 273 kts 196°
2026-05-08 08:33 52.09965 20.76956 6217 ft 275 kts 200°
2026-05-08 08:33 52.08144 20.75926 6953 ft 275 kts 202°
2026-05-08 08:33 52.06362 20.74855 7643 ft 277 kts 202°
2026-05-08 08:33 52.04559 20.73774 8323 ft 279 kts 202°
2026-05-08 08:34 52.02720 20.72690 8990 ft 281 kts 201°
2026-05-08 08:34 52.00867 20.71609 9640 ft 284 kts 201°
2026-05-08 08:34 51.99028 20.70541 10256 ft 287 kts 201°
2026-05-08 08:34 51.97091 20.69415 10469 ft 305 kts 201°
2026-05-08 08:35 51.95026 20.68213 10612 ft 325 kts 201°
2026-05-08 08:35 51.92847 20.66946 10756 ft 343 kts 201°
2026-05-08 08:35 51.90566 20.65625 11179 ft 351 kts 201°
2026-05-08 08:35 51.88232 20.64277 11745 ft 355 kts 201°
2026-05-08 08:36 51.85892 20.62927 12349 ft 357 kts 201°
2026-05-08 08:36 51.83558 20.61582 12934 ft 359 kts 201°
2026-05-08 08:36 51.81194 20.60220 13496 ft 361 kts 201°
2026-05-08 08:36 51.78839 20.58863 14077 ft 363 kts 201°
2026-05-08 08:37 51.76444 20.57485 14666 ft 364 kts 201°
2026-05-08 08:37 51.74081 20.56127 15224 ft 365 kts 201°
2026-05-08 08:37 51.71679 20.54750 15753 ft 367 kts 201°
2026-05-08 08:37 51.69279 20.53373 16248 ft 370 kts 201°
2026-05-08 08:38 51.66861 20.51988 16794 ft 371 kts 200°
2026-05-08 08:38 51.64426 20.50593 17332 ft 372 kts 200°
2026-05-08 08:38 51.62006 20.49209 17828 ft 373 kts 200°
2026-05-08 08:38 51.59535 20.47798 18298 ft 375 kts 200°
2026-05-08 08:39 51.57075 20.46394 18732 ft 378 kts 200°
2026-05-08 08:39 51.54615 20.44993 19209 ft 379 kts 200°
2026-05-08 08:39 51.52107 20.43567 19637 ft 381 kts 200°
2026-05-08 08:39 51.49605 20.42145 20036 ft 384 kts 200°
2026-05-08 08:40 51.47122 20.40736 20466 ft 385 kts 200°
2026-05-08 08:40 51.44556 20.39282 20918 ft 387 kts 199°
2026-05-08 08:40 51.42008 20.37840 21314 ft 389 kts 199°
2026-05-08 08:40 51.39468 20.36402 21708 ft 391 kts 200°
2026-05-08 08:41 51.36937 20.34843 22081 ft 393 kts 202°
2026-05-08 08:41 51.34413 20.33039 22416 ft 396 kts 204°
2026-05-08 08:41 51.31946 20.31126 22793 ft 398 kts 205°
2026-05-08 08:41 51.29427 20.29129 23148 ft 400 kts 205°
2026-05-08 08:42 51.26922 20.27153 23514 ft 402 kts 205°
2026-05-08 08:42 51.24394 20.25184 23833 ft 405 kts 204°
2026-05-08 08:42 51.21859 20.23233 24197 ft 406 kts 204°
2026-05-08 08:42 51.19282 20.21268 24490 ft 408 kts 204°
2026-05-08 08:43 51.16704 20.19314 24815 ft 410 kts 204°
2026-05-08 08:43 51.14146 20.17382 25120 ft 411 kts 204°
2026-05-08 08:43 51.11553 20.15430 25438 ft 412 kts 204°
2026-05-08 08:43 51.08940 20.13466 25710 ft 415 kts 204°
2026-05-08 08:44 51.06335 20.11511 25994 ft 416 kts 204°
2026-05-08 08:44 51.03684 20.09525 26268 ft 418 kts 204°
2026-05-08 08:44 51.01072 20.07571 26567 ft 419 kts 204°
2026-05-08 08:44 50.98413 20.05584 26820 ft 421 kts 204°
2026-05-08 08:45 50.95742 20.03591 27078 ft 422 kts 204°
2026-05-08 08:45 50.93104 20.01625 27343 ft 423 kts 205°
2026-05-08 08:45 50.90412 19.99622 27623 ft 424 kts 205°
2026-05-08 08:45 50.87733 19.97630 27876 ft 426 kts 205°
2026-05-08 08:46 50.85041 19.95631 28110 ft 427 kts 205°
2026-05-08 08:46 50.82364 19.93646 28371 ft 428 kts 205°
2026-05-08 08:46 50.79688 19.91664 28616 ft 430 kts 205°
2026-05-08 08:46 50.77014 19.89686 28835 ft 431 kts 206°
2026-05-08 08:47 50.74278 19.87665 29076 ft 433 kts 206°
2026-05-08 08:47 50.71558 19.85659 29264 ft 435 kts 206°
2026-05-08 08:47 50.68807 19.83632 29663 ft 432 kts 206°
2026-05-08 08:47 50.66124 19.81659 30002 ft 431 kts 206°
2026-05-08 08:48 50.63403 19.79659 30256 ft 431 kts 207°
2026-05-08 08:48 50.60694 19.77671 30571 ft 430 kts 207°
2026-05-08 08:48 50.57970 19.75675 30775 ft 431 kts 207°
2026-05-08 08:48 50.55272 19.73699 30992 ft 431 kts 207°
2026-05-08 08:49 50.52558 19.71715 31265 ft 430 kts 207°
2026-05-08 08:49 50.49863 19.69748 31479 ft 430 kts 207°
2026-05-08 08:49 50.47164 19.67780 31705 ft 430 kts 207°
2026-05-08 08:49 50.44442 19.65797 31876 ft 431 kts 207°
2026-05-08 08:50 50.41719 19.63817 32098 ft 431 kts 207°
2026-05-08 08:50 50.39006 19.61845 32253 ft 432 kts 207°
2026-05-08 08:50 50.36309 19.59888 32454 ft 432 kts 208°
2026-05-08 08:50 50.33587 19.57917 32717 ft 430 kts 208°
2026-05-08 08:51 50.30885 19.55963 32929 ft 429 kts 208°
2026-05-08 08:51 50.28166 19.54012 33145 ft 428 kts 207°
2026-05-08 08:51 50.25454 19.52117 33324 ft 428 kts 207°
2026-05-08 08:51 50.22772 19.50283 33549 ft 427 kts 207°
2026-05-08 08:52 50.20044 19.48434 33757 ft 426 kts 207°
2026-05-08 08:52 50.17311 19.46586 33933 ft 427 kts 206°
2026-05-08 08:52 50.14617 19.44764 34138 ft 426 kts 207°
2026-05-08 08:52 50.11912 19.42930 34347 ft 426 kts 207°
2026-05-08 08:53 50.09204 19.41093 34528 ft 426 kts 207°
2026-05-08 08:53 50.06487 19.39249 34741 ft 425 kts 207°
2026-05-08 08:53 50.03862 19.37468 34881 ft 427 kts 207°
2026-05-08 08:53 50.01146 19.35626 35044 ft 427 kts 207°
2026-05-08 08:54 49.98424 19.33782 35253 ft 426 kts 206°
2026-05-08 08:54 49.95743 19.31968 35423 ft 426 kts 206°
2026-05-08 08:54 49.93051 19.30148 35591 ft 426 kts 206°
2026-05-08 08:54 49.90325 19.28307 35781 ft 426 kts 206°
2026-05-08 08:55 49.87646 19.26499 35922 ft 426 kts 206°
2026-05-08 08:55 49.84920 19.24663 36078 ft 426 kts 206°
2026-05-08 08:55 49.82224 19.22850 36220 ft 427 kts 206°
2026-05-08 08:55 49.79515 19.21030 36380 ft 427 kts 206°
2026-05-08 08:56 49.76784 19.19199 36568 ft 425 kts 206°
2026-05-08 08:56 49.74092 19.17396 36708 ft 426 kts 206°
2026-05-08 08:56 49.71399 19.15593 36833 ft 426 kts 206°
2026-05-08 08:56 49.68695 19.13785 36972 ft 426 kts 206°
2026-05-08 08:57 49.65973 19.11967 37093 ft 426 kts 206°
2026-05-08 08:57 49.63250 19.10151 37244 ft 426 kts 206°
2026-05-08 08:57 49.57838 19.06547 37444 ft 427 kts 206°
2026-05-08 08:58 49.55151 19.04761 37633 ft 425 kts 206°
2026-05-08 08:58 49.52459 19.02976 37778 ft 424 kts 206°
2026-05-08 08:58 49.47069 18.99405 37959 ft 425 kts 206°
2026-05-08 08:59 49.41633 18.95893 38061 ft 429 kts 204°
2026-05-08 08:59 49.36077 18.92751 38058 ft 431 kts 202°
2026-05-08 09:00 49.30443 18.89722 38074 ft 425 kts 202°
2026-05-08 09:00 49.24975 18.86746 38067 ft 424 kts 203°
2026-05-08 09:01 49.19432 18.83689 38069 ft 426 kts 203°
2026-05-08 09:01 49.13925 18.80639 38065 ft 428 kts 203°
2026-05-08 09:02 49.08348 18.77555 38064 ft 425 kts 204°
2026-05-08 09:02 49.02867 18.74530 38059 ft 424 kts 204°
2026-05-08 09:03 48.97335 18.71481 38049 ft 425 kts 204°
2026-05-08 09:03 48.91900 18.68493 38019 ft 424 kts 204°
2026-05-08 09:04 48.86497 18.65529 38049 ft 424 kts 204°
2026-05-08 09:04 48.80959 18.62497 38062 ft 425 kts 204°
2026-05-08 09:05 48.75415 18.59470 38060 ft 427 kts 204°
2026-05-08 09:05 48.69960 18.56501 38055 ft 423 kts 204°
2026-05-08 09:06 48.64451 18.53512 38060 ft 422 kts 204°
2026-05-08 09:06 48.58965 18.50539 38065 ft 423 kts 204°
2026-05-08 09:07 48.53460 18.47559 38055 ft 425 kts 204°
2026-05-08 09:07 48.47966 18.44595 38063 ft 424 kts 204°
2026-05-08 09:08 48.42438 18.41620 38055 ft 424 kts 204°
2026-05-08 09:08 48.36973 18.38685 38064 ft 423 kts 204°
2026-05-08 09:09 48.31458 18.35731 38061 ft 423 kts 204°
2026-05-08 09:09 48.26020 18.32824 38064 ft 422 kts 204°
2026-05-08 09:10 48.20491 18.29874 38060 ft 422 kts 203°
2026-05-08 09:10 48.14977 18.26941 38049 ft 421 kts 203°
2026-05-08 09:11 48.09492 18.24029 38053 ft 420 kts 204°
2026-05-08 09:11 48.04011 18.21124 38062 ft 420 kts 203°
2026-05-08 09:12 47.98508 18.18214 38050 ft 423 kts 204°
2026-05-08 09:12 47.93006 18.15311 38054 ft 423 kts 204°
2026-05-08 09:13 47.87516 18.12429 38060 ft 419 kts 204°
2026-05-08 09:13 47.82061 18.09567 38055 ft 418 kts 204°
2026-05-08 09:14 47.76630 18.06721 38061 ft 419 kts 204°
2026-05-08 09:14 47.71109 18.03956 38061 ft 420 kts 202°
2026-05-08 09:15 47.65549 18.01419 38055 ft 418 kts 201°
2026-05-08 09:15 47.60034 17.98934 38064 ft 418 kts 201°
2026-05-08 09:16 47.54511 17.96416 38066 ft 419 kts 202°
2026-05-08 09:16 47.48996 17.93889 38071 ft 419 kts 202°
2026-05-08 09:17 47.43439 17.91345 38070 ft 416 kts 202°
2026-05-08 09:17 47.37976 17.88845 38076 ft 416 kts 202°
2026-05-08 09:18 47.32470 17.86329 38076 ft 415 kts 202°
2026-05-08 09:18 47.27025 17.83846 38078 ft 416 kts 202°
2026-05-08 09:19 47.21527 17.81344 38079 ft 414 kts 202°
2026-05-08 09:19 47.16073 17.78868 38075 ft 414 kts 202°
2026-05-08 09:20 47.10577 17.76378 38079 ft 415 kts 202°
2026-05-08 09:20 47.05099 17.73902 38079 ft 415 kts 202°
2026-05-08 09:21 46.99620 17.71432 38077 ft 413 kts 202°
2026-05-08 09:23 46.80620 17.62902 38069 ft 413 kts 202°
2026-05-08 09:23 46.75179 17.60472 38067 ft 412 kts 202°
2026-05-08 09:24 46.69741 17.58051 38076 ft 410 kts 202°
2026-05-08 09:24 46.64303 17.55631 38074 ft 412 kts 202°
2026-05-08 09:25 46.58832 17.53245 38077 ft 413 kts 201°
2026-05-08 09:25 46.53327 17.51041 38068 ft 413 kts 200°
2026-05-08 09:26 46.47813 17.48889 38068 ft 411 kts 200°
2026-05-08 09:26 46.42337 17.46732 38064 ft 411 kts 200°
2026-05-08 09:27 46.36820 17.44544 38055 ft 412 kts 200°
2026-05-08 09:27 46.31330 17.42366 38056 ft 413 kts 200°
2026-05-08 09:28 46.25834 17.40191 38056 ft 412 kts 200°
2026-05-08 09:28 46.20339 17.38021 38060 ft 411 kts 200°
2026-05-08 09:29 46.14852 17.35854 38060 ft 411 kts 200°
2026-05-08 09:29 46.09415 17.33713 38061 ft 410 kts 199°
2026-05-08 09:30 46.03975 17.31575 38058 ft 412 kts 199°
2026-05-08 09:30 45.98465 17.29409 38056 ft 411 kts 200°
2026-05-08 09:31 45.93053 17.27058 38057 ft 409 kts 202°
2026-05-08 09:31 45.87698 17.24546 38054 ft 409 kts 202°
2026-05-08 09:32 45.82269 17.22019 38053 ft 410 kts 202°
2026-05-08 09:32 45.76880 17.19550 38056 ft 410 kts 201°
2026-05-08 09:33 45.71456 17.17087 38053 ft 409 kts 201°
2026-05-08 09:33 45.66098 17.14663 38056 ft 408 kts 201°
2026-05-08 09:34 45.60746 17.12247 38053 ft 408 kts 201°
2026-05-08 09:34 45.55391 17.09834 38053 ft 409 kts 201°
2026-05-08 09:35 45.50011 17.07415 38054 ft 408 kts 201°
2026-05-08 09:35 45.44647 17.05008 38060 ft 408 kts 201°
2026-05-08 09:36 45.39261 17.02594 38055 ft 410 kts 201°
2026-05-08 09:36 45.33874 17.00187 38053 ft 410 kts 201°
2026-05-08 09:37 45.28495 16.97790 38054 ft 408 kts 201°
2026-05-08 09:37 45.23096 16.95390 38056 ft 407 kts 201°
2026-05-08 09:38 45.17725 16.93130 38064 ft 407 kts 200°
2026-05-08 09:38 45.12309 16.91004 38065 ft 409 kts 199°
2026-05-08 09:39 45.06883 16.88882 38065 ft 410 kts 199°
2026-05-08 09:39 45.01431 16.86731 38064 ft 410 kts 199°
2026-05-08 09:40 44.95975 16.84571 38069 ft 409 kts 199°
2026-05-08 09:40 44.90538 16.82420 38061 ft 408 kts 199°
2026-05-08 09:41 44.85199 16.80308 38062 ft 408 kts 199°
2026-05-08 09:41 44.79715 16.78143 38057 ft 409 kts 199°
2026-05-08 09:42 44.74300 16.76011 38057 ft 408 kts 199°
2026-05-08 09:42 44.68838 16.73864 38061 ft 409 kts 199°
2026-05-08 09:43 44.63420 16.71738 38061 ft 410 kts 199°
2026-05-08 09:43 44.57986 16.69611 38065 ft 409 kts 199°
2026-05-08 09:44 44.52519 16.67477 38065 ft 409 kts 199°
2026-05-08 09:44 44.47066 16.65349 38066 ft 410 kts 199°
2026-05-08 09:45 44.41631 16.63232 38068 ft 408 kts 199°
2026-05-08 09:45 44.36164 16.61108 38067 ft 408 kts 199°
2026-05-08 09:46 44.30752 16.59008 38070 ft 409 kts 199°
2026-05-08 09:46 44.25258 16.56880 38072 ft 409 kts 199°
2026-05-08 09:47 44.19832 16.54796 38071 ft 409 kts 199°
2026-05-08 09:47 44.14352 16.52684 38070 ft 409 kts 198°
2026-05-08 09:48 44.08900 16.50582 38070 ft 411 kts 198°
2026-05-08 09:48 44.03373 16.48458 38072 ft 412 kts 198°
2026-05-08 09:49 43.97861 16.46463 38066 ft 411 kts 197°
2026-05-08 09:49 43.92347 16.44646 38063 ft 411 kts 196°
2026-05-08 09:50 43.86803 16.42832 38060 ft 412 kts 196°
2026-05-08 09:50 43.81237 16.40988 38055 ft 412 kts 196°
2026-05-08 09:51 43.75693 16.39141 38049 ft 411 kts 196°
2026-05-08 09:51 43.70186 16.37305 38036 ft 411 kts 196°
2026-05-08 09:52 43.64628 16.35454 38030 ft 412 kts 196°
2026-05-08 09:52 43.59090 16.33613 38021 ft 412 kts 195°
2026-05-08 09:53 43.53523 16.31765 38016 ft 412 kts 195°
2026-05-08 09:53 43.47970 16.29947 38014 ft 413 kts 194°
2026-05-08 09:54 43.42395 16.28415 38010 ft 414 kts 192°
2026-05-08 09:54 43.36711 16.27005 38009 ft 415 kts 192°
2026-05-08 09:55 43.30150 16.25347 38007 ft 414 kts 193°
2026-05-08 09:55 43.25422 16.24127 38007 ft 415 kts 193°
2026-05-08 09:56 43.19801 16.22667 38011 ft 415 kts 193°
2026-05-08 09:56 43.14120 16.21191 38007 ft 415 kts 193°
2026-05-08 09:57 43.05656 16.18994 38010 ft 416 kts 193°
2026-05-08 09:57 42.99961 16.17522 38009 ft 416 kts 192°
2026-05-08 09:58 42.94295 16.16058 38006 ft 416 kts 193°
2026-05-08 09:58 42.88654 16.14601 38002 ft 416 kts 193°
2026-05-08 09:59 42.82946 16.13130 38006 ft 417 kts 193°
2026-05-08 09:59 42.77261 16.11668 38003 ft 418 kts 193°
2026-05-08 10:00 42.71596 16.10216 37995 ft 417 kts 193°
2026-05-08 10:00 42.68715 16.09478 37863 ft 419 kts 193°
2026-05-08 10:00 42.65906 16.08758 37587 ft 420 kts 192°
2026-05-08 10:01 42.63051 16.08028 37283 ft 417 kts 192°
2026-05-08 10:01 42.60215 16.07306 37005 ft 413 kts 192°
2026-05-08 10:01 42.54619 16.05881 36987 ft 411 kts 192°
2026-05-08 10:02 42.49059 16.04048 36983 ft 417 kts 199°
2026-05-08 10:02 42.43628 16.01318 36987 ft 416 kts 203°
2026-05-08 10:03 42.38307 15.98370 36982 ft 414 kts 203°
2026-05-08 10:03 42.32990 15.95458 36982 ft 415 kts 203°
2026-05-08 10:04 42.27588 15.92553 36978 ft 416 kts 203°
2026-05-08 10:04 42.22231 15.89700 36976 ft 415 kts 202°
2026-05-08 10:05 42.16868 15.86856 36980 ft 416 kts 202°
2026-05-08 10:05 42.11489 15.84012 36975 ft 416 kts 202°
2026-05-08 10:06 42.06130 15.81184 36965 ft 416 kts 202°
2026-05-08 10:06 42.00726 15.78336 36968 ft 418 kts 202°
2026-05-08 10:07 41.95341 15.75503 36975 ft 416 kts 202°
2026-05-08 10:07 41.89989 15.72693 36975 ft 417 kts 203°
2026-05-08 10:08 41.84647 15.69893 36970 ft 418 kts 203°
2026-05-08 10:08 41.79237 15.67063 36980 ft 419 kts 203°
2026-05-08 10:09 41.73801 15.64226 36980 ft 417 kts 204°
2026-05-08 10:09 41.68441 15.61433 36980 ft 418 kts 204°
2026-05-08 10:10 41.63011 15.58607 36982 ft 420 kts 203°
2026-05-08 10:10 41.57592 15.55793 36978 ft 418 kts 204°
2026-05-08 10:11 41.52213 15.53005 36986 ft 419 kts 204°
2026-05-08 10:11 41.46789 15.50199 36989 ft 421 kts 204°
2026-05-08 10:12 41.41331 15.47382 36988 ft 421 kts 204°
2026-05-08 10:12 41.35870 15.44559 36985 ft 422 kts 204°
2026-05-08 10:13 41.30426 15.41760 36992 ft 421 kts 204°
2026-05-08 10:13 41.25008 15.38981 36988 ft 421 kts 204°
2026-05-08 10:14 41.19553 15.36183 36982 ft 423 kts 205°
2026-05-08 10:14 41.14081 15.33382 36980 ft 424 kts 204°
2026-05-08 10:15 41.08596 15.30578 36979 ft 424 kts 204°
2026-05-08 10:15 41.03107 15.27778 36979 ft 425 kts 204°
2026-05-08 10:16 40.97628 15.24989 36978 ft 425 kts 204°
2026-05-08 10:16 40.92162 15.22213 36981 ft 425 kts 204°
2026-05-08 10:17 40.86745 15.19467 36986 ft 424 kts 205°
2026-05-08 10:17 40.81235 15.16675 36981 ft 425 kts 205°
2026-05-08 10:18 40.75782 15.13917 36984 ft 424 kts 205°
2026-05-08 10:18 40.70294 15.11149 36990 ft 424 kts 205°
2026-05-08 10:19 40.64812 15.08387 36986 ft 425 kts 205°
2026-05-08 10:20 40.56669 15.04297 36981 ft 424 kts 205°
2026-05-08 10:20 40.51152 15.01535 36972 ft 426 kts 206°
2026-05-08 10:21 40.45681 14.98795 36971 ft 424 kts 206°
2026-05-08 10:21 40.40179 14.96045 36960 ft 425 kts 206°
2026-05-08 10:22 40.34657 14.93289 36958 ft 425 kts 206°
2026-05-08 10:22 40.29145 14.90545 36958 ft 421 kts 207°
2026-05-08 10:23 40.23674 14.87922 36946 ft 423 kts 204°
2026-05-08 10:23 40.17736 14.86793 36950 ft 443 kts 184°
2026-05-08 10:23 40.14658 14.87364 36959 ft 453 kts 173°
2026-05-08 10:24 40.11648 14.88650 36946 ft 463 kts 163°
2026-05-08 10:24 40.06033 14.93035 36947 ft 479 kts 148°
2026-05-08 10:25 40.00870 14.98612 36942 ft 481 kts 144°
2026-05-08 10:25 39.95880 15.04364 36948 ft 481 kts 143°
2026-05-08 10:26 39.90849 15.10143 36947 ft 483 kts 144°
2026-05-08 10:26 39.85809 15.15854 36920 ft 480 kts 144°
2026-05-08 10:26 39.83304 15.18676 36585 ft 477 kts 144°
2026-05-08 10:27 39.80806 15.21481 35893 ft 479 kts 144°
2026-05-08 10:27 39.78283 15.24304 35227 ft 482 kts 144°
2026-05-08 10:27 39.75710 15.27177 34567 ft 485 kts 144°
2026-05-08 10:27 39.73174 15.30007 34018 ft 485 kts 144°
2026-05-08 10:28 39.70646 15.32824 33413 ft 486 kts 144°
2026-05-08 10:28 39.68095 15.35668 32805 ft 486 kts 144°
2026-05-08 10:28 39.65518 15.38542 32196 ft 485 kts 143°
2026-05-08 10:28 39.62978 15.41374 31589 ft 484 kts 143°
2026-05-08 10:29 39.60438 15.44204 30986 ft 483 kts 144°
2026-05-08 10:29 39.57877 15.47053 30374 ft 482 kts 143°
2026-05-08 10:29 39.55351 15.49862 29758 ft 481 kts 144°
2026-05-08 10:29 39.52838 15.52652 29142 ft 479 kts 143°
2026-05-08 10:30 39.50310 15.55457 28523 ft 476 kts 144°
2026-05-08 10:30 39.47781 15.58260 27913 ft 474 kts 144°
2026-05-08 10:30 39.45294 15.61013 27311 ft 471 kts 144°
2026-05-08 10:30 39.42793 15.63780 26706 ft 469 kts 144°
2026-05-08 10:31 39.40326 15.66505 26110 ft 466 kts 145°
2026-05-08 10:31 39.37877 15.69208 25508 ft 463 kts 146°
2026-05-08 10:31 39.35416 15.71919 24920 ft 460 kts 146°
2026-05-08 10:31 39.32994 15.74585 24321 ft 457 kts 146°
2026-05-08 10:32 39.30581 15.77238 23724 ft 453 kts 146°
2026-05-08 10:32 39.28192 15.79863 23153 ft 450 kts 147°
2026-05-08 10:32 39.25784 15.82504 22583 ft 447 kts 146°
2026-05-08 10:32 39.23423 15.85087 22009 ft 445 kts 146°
2026-05-08 10:33 39.21048 15.87680 21431 ft 442 kts 146°
2026-05-08 10:33 39.18716 15.90269 20845 ft 440 kts 143°
2026-05-08 10:33 39.16486 15.92951 20251 ft 437 kts 141°
2026-05-08 10:33 39.14361 15.95681 19695 ft 425 kts 139°
2026-05-08 10:34 39.12329 15.98377 19154 ft 413 kts 139°
2026-05-08 10:34 39.10370 16.00990 18615 ft 402 kts 139°
2026-05-08 10:34 39.08453 16.03536 18095 ft 390 kts 139°
2026-05-08 10:34 39.06579 16.05996 17587 ft 379 kts 139°
2026-05-08 10:35 39.04739 16.08383 17088 ft 369 kts 139°
2026-05-08 10:35 39.02943 16.10687 16608 ft 359 kts 140°
2026-05-08 10:35 39.01178 16.12940 16143 ft 351 kts 140°
2026-05-08 10:35 38.99465 16.15116 15688 ft 343 kts 140°
2026-05-08 10:36 38.97771 16.17265 15231 ft 338 kts 141°
2026-05-08 10:36 38.96091 16.19386 14768 ft 338 kts 141°
2026-05-08 10:36 38.94418 16.21501 14327 ft 338 kts 140°
2026-05-08 10:36 38.92750 16.23611 13872 ft 338 kts 140°
2026-05-08 10:37 38.91074 16.25747 13432 ft 339 kts 139°
2026-05-08 10:37 38.89578 16.28091 12986 ft 343 kts 128°
2026-05-08 10:37 38.88347 16.30717 12530 ft 346 kts 122°
2026-05-08 10:37 38.87249 16.33470 12093 ft 347 kts 119°
2026-05-08 10:38 38.86172 16.36236 11621 ft 348 kts 120°
2026-05-08 10:38 38.85060 16.38989 11134 ft 348 kts 121°
2026-05-08 10:38 38.83919 16.41706 10661 ft 347 kts 122°
2026-05-08 10:38 38.82767 16.44397 10211 ft 338 kts 122°
2026-05-08 10:39 38.81644 16.46996 9952 ft 325 kts 122°
2026-05-08 10:39 38.80579 16.49461 9792 ft 309 kts 122°
2026-05-08 10:39 38.79543 16.51850 9329 ft 306 kts 122°
2026-05-08 10:39 38.78583 16.54243 8913 ft 303 kts 114°
2026-05-08 10:40 38.77996 16.56803 8561 ft 298 kts 101°
2026-05-08 10:40 38.77743 16.59422 8215 ft 291 kts 90°
2026-05-08 10:40 38.78102 16.61918 7917 ft 282 kts 62°
2026-05-08 10:40 38.79232 16.63877 7793 ft 265 kts 36°
2026-05-08 10:41 38.80747 16.65114 7454 ft 260 kts 17°
2026-05-08 10:41 38.82502 16.65692 7142 ft 254 kts
2026-05-08 10:41 38.84207 16.65716 6840 ft 242 kts 342°
2026-05-08 10:41 38.85681 16.64882 6597 ft 225 kts 317°
2026-05-08 10:42 38.86738 16.63481 6353 ft 215 kts 300°
2026-05-08 10:42 38.87235 16.61704 6078 ft 209 kts 273°
2026-05-08 10:42 38.87259 16.59854 5822 ft 207 kts 268°
2026-05-08 10:42 38.87194 16.58032 5652 ft 202 kts 266°
2026-05-08 10:43 38.87100 16.56261 5491 ft 196 kts 267°
2026-05-08 10:43 38.87109 16.54465 5312 ft 210 kts 273°
2026-05-08 10:43 38.87222 16.52571 5062 ft 213 kts 274°
2026-05-08 10:43 38.87388 16.50668 4877 ft 211 kts 277°
2026-05-08 10:44 38.87618 16.48813 4842 ft 213 kts 278°
2026-05-08 10:44 38.87838 16.46926 4505 ft 215 kts 278°
2026-05-08 10:44 38.88062 16.45056 4148 ft 210 kts 278°
2026-05-08 10:44 38.88286 16.43223 3784 ft 204 kts 278°
2026-05-08 10:45 38.88493 16.41455 3405 ft 200 kts 278°
2026-05-08 10:45 38.88704 16.39709 3030 ft 197 kts 278°
2026-05-08 10:45 38.88908 16.37988 2664 ft 194 kts 278°
2026-05-08 10:45 38.89110 16.36288 2300 ft 185 kts 279°
2026-05-08 10:46 38.89297 16.34719 1923 ft 172 kts 278°
2026-05-08 10:46 38.89469 16.33276 1567 ft 159 kts 279°
2026-05-08 10:46 38.89630 16.31911 1191 ft 151 kts 278°
2026-05-08 10:46 38.89786 16.30583 852 ft 147 kts 278°
2026-05-08 10:47 38.89954 16.29316 598 ft 143 kts 278°
2026-05-08 10:47 38.90105 16.28052 450 ft 142 kts 277°
2026-05-08 10:47 38.90253 16.26794 259 ft 144 kts 276°
2026-05-08 10:47 38.90381 16.25555 74 ft 132 kts 276°
2026-05-08 10:48 38.90491 16.24613 68 ft 74 kts 275°
2026-05-08 10:48 38.90547 16.24161 68 ft 41 kts 278°
2026-05-08 10:48 38.90582 16.23852 68 ft 24 kts 277°
2026-05-08 10:48 38.90618 16.23698 67 ft 15 kts 295°
2026-05-08 10:49 38.90671 16.23588 67 ft 13 kts 307°
2026-05-08 10:49 38.90740 16.23492 67 ft 14 kts 330°
2026-05-08 10:49 38.90828 16.23514 68 ft 12 kts 48°
2026-05-08 10:49 38.90834 16.23619 68 ft 13 kts 98°
2026-05-08 10:50 38.90818 16.23759 68 ft 17 kts 98°
2026-05-08 10:50 38.90796 16.23937 68 ft 21 kts 98°
2026-05-08 10:50 38.90776 16.24117 68 ft 17 kts 97°
2026-05-08 10:50 38.90824 16.24239 68 ft 14 kts 61°
2026-05-08 10:51 38.90821 16.24356 68 ft 12 kts 98°
2026-05-08 10:51 38.90827 16.24425 68 ft 5 kts 27°
2026-05-08 10:51 38.90854 16.24433 68 ft 1 kts
2026-05-08 10:51 38.90863 16.24438 68 ft 2 kts 39°
2026-05-08 10:52 38.90873 16.24449 68 ft 1 kts 45°
2026-05-08 10:52 38.90875 16.24452 68 ft 0 kts 48°